Theta_e
317 315 314 314 315 314 315 317 316 315 311 310 311 311 311 312 313 314 315 316 316 317 319 333 348 346 345 343 343 343 343 340 340 340 338 338 342 338 338 341 340 340 339 337
318 319 318 317 316 318 319 319 319 316 312 312 312 312 312 312 312 313 315 316 316 317 318 324 340 346 346 344 343 342 342 340 344 341 346 342 344 344 345 342 343 340 339 336
319 319 319 319 318 319 318 317 316 317 316 315 314 314 313 312 313 315 315 316 317 317 318 323 345 342 345 346 345 347 346 345 345 344 346 345 345 344 346 345 343 339 337 335
317 317 319 319 321 318 320 318 316 318 318 318 314 316 314 314 315 315 317 316 317 318 318 320 335 346 345 346 346 344 347 349 348 346 345 345 346 346 346 345 340 337 335 336
318 318 318 320 321 319 320 318 319 319 319 317 317 318 314 314 316 317 316 316 317 318 318 319 328 337 334 342 332 331 336 341 347 347 346 345 347 347 345 339 337 337 339 338
317 315 315 317 319 319 319 319 317 318 317 320 316 316 314 314 315 316 314 315 317 318 319 321 327 333 339 339 338 330 332 328 334 348 346 346 347 348 344 338 338 339 340 343
315 315 316 318 319 317 317 319 322 321 322 317 317 315 314 315 316 316 314 315 317 318 320 323 333 335 337 336 332 331 330 329 343 347 347 346 345 345 346 340 339 340 342 343
317 318 316 316 318 321 320 318 321 321 322 320 317 319 316 315 315 315 317 318 318 318 322 328 332 338 338 337 333 328 335 345 347 348 348 348 347 346 341 336 339 342 344 344
318 319 317 317 318 319 321 321 318 319 320 321 317 319 315 314 316 316 316 319 317 319 324 326 337 340 336 331 334 339 347 350 349 350 350 349 348 344 336 340 345 346 343 340
316 319 319 319 319 320 320 319 324 320 326 327 326 325 320 326 327 326 318 316 318 319 323 333 339 340 333 333 336 342 349 351 350 350 349 347 339 335 337 347 345 339 339 336
316 319 319 318 320 320 321 324 322 320 322 329 327 326 323 325 325 328 328 327 322 318 322 347 341 343 343 345 344 345 349 348 346 347 346 338 338 345 347 344 339 338 336 334
317 316 321 319 318 320 320 324 324 326 326 322 324 328 320 322 323 326 325 328 328 319 320 336 345 341 343 346 345 346 346 347 346 343 337 340 342 345 342 339 339 337 335 332
315 316 322 320 319 319 321 321 323 324 322 326 328 324 322 324 323 324 323 332 327 320 321 330 345 344 343 344 345 346 346 346 343 340 344 346 346 340 341 339 337 334 332 331
316 315 321 318 320 320 323 325 326 325 325 326 325 324 323 325 323 321 323 330 321 321 326 334 344 341 339 339 344 346 344 343 344 344 345 345 340 339 339 335 332 331 329 327
315 318 317 318 319 322 322 322 325 325 324 324 323 325 328 324 321 319 325 336 336 337 339 342 340 340 339 340 342 344 337 340 342 344 342 339 339 338 335 331 330 328 325 324
314 316 317 321 320 324 323 323 326 326 327 327 326 329 325 322 318 318 323 333 335 332 331 331 330 335 334 335 336 337 336 336 335 328 334 336 335 335 333 330 326 324 323 321
318 320 319 321 320 323 325 324 326 326 324 326 330 328 325 323 318 315 318 325 327 329 328 328 328 332 333 336 338 335 332 333 330 332 330 332 333 331 327 326 324 321 321 320
319 316 319 319 319 327 324 321 321 323 322 322 324 325 325 321 316 313 314 325 327 328 326 329 328 332 330 329 327 326 327 330 329 333 331 332 329 326 324 323 321 320 318 316
313 319 320 322 322 323 323 320 320 322 323 320 323 324 321 322 321 319 314 322 326 326 326 328 328 331 331 329 328 327 326 328 329 326 325 325 325 324 322 321 319 317 314 307
314 319 320 321 322 323 323 319 319 320 325 319 320 320 317 316 326 318 313 317 325 325 325 328 325 326 329 330 328 324 323 324 327 324 323 324 325 322 320 318 315 309 306 305
315 316 321 322 322 323 320 318 319 322 321 319 319 316 314 315 311 312 315 319 322 323 321 320 321 323 321 319 319 317 318 325 322 323 324 322 320 319 317 312 308 306 303 302
319 319 318 317 322 322 318 318 320 318 319 319 319 316 314 312 311 313 315 317 319 320 318 319 319 317 316 317 319 318 318 318 322 323 321 317 316 313 307 306 304 303 303 302
318 315 317 317 315 316 319 318 319 319 318 318 320 316 317 315 311 312 314 317 317 317 317 317 318 317 315 316 323 322 318 320 319 318 316 312 307 306 305 304 304 304 303 302
314 315 316 315 317 318 319 319 319 317 316 319 322 317 315 317 313 311 312 314 315 315 316 316 317 317 318 318 318 319 316 317 317 316 309 307 307 306 305 305 305 304 305 303
311 312 312 314 317 316 319 319 318 317 315 318 317 316 315 315 314 311 311 312 314 314 314 315 316 317 316 316 318 318 317 318 317 313 310 308 306 306 305 305 304 303 302 301
312 311 314 316 316 315 316 316 318 318 315 317 318 315 313 314 315 311 309 311 312 313 314 315 315 315 314 315 317 315 315 314 313 309 308 307 306 306 304 303 301 300 300 296
Wind_Speed
8 2 7 14 13 14 10 15 17 14 8 5 16 17 20 16 23 21 18 28 24 33 27 16 34 54 46 43 48 48 44 43 41 40 37 33 28 28 25 20 17 17 17 10
4 11 16 13 17 10 12 17 24 17 6 5 15 21 18 14 18 27 23 28 25 28 30 19 22 32 44 38 43 44 47 45 43 41 36 34 32 29 25 23 20 20 19 12
9 13 15 6 1 5 9 11 16 18 11 11 12 18 19 16 18 28 28 30 30 27 26 20 34 45 47 34 32 32 38 46 46 41 38 36 35 30 27 23 22 24 17 13
9 9 9 13 13 10 13 12 18 17 8 9 5 13 8 7 16 16 22 23 30 27 25 23 32 41 43 46 36 24 21 31 45 42 41 39 37 33 31 25 25 22 19 15
10 17 12 14 11 10 14 13 14 16 11 4 13 4 7 9 12 17 15 22 29 28 27 26 32 42 40 48 40 35 23 25 31 41 40 37 34 28 25 23 26 24 20 16
19 21 9 8 12 13 2 6 6 5 4 8 16 9 6 8 16 8 10 23 31 29 25 27 34 35 43 39 53 43 52 33 45 37 32 35 27 27 26 26 25 23 20 17
13 5 5 2 6 3 4 3 3 3 3 5 2 9 13 5 9 10 9 16 32 30 27 30 43 43 47 46 44 45 49 30 36 40 35 31 27 29 27 26 26 25 23 19
6 9 5 11 5 5 4 3 2 5 3 4 4 5 8 11 18 22 26 18 25 22 28 33 40 48 48 43 45 43 43 45 46 39 32 28 30 31 28 26 26 23 22 17
5 6 9 14 12 7 4 5 3 4 3 3 3 6 9 7 9 9 10 14 24 24 27 32 43 43 49 48 55 51 45 48 41 36 33 34 31 29 29 29 27 25 17 16
3 8 9 13 3 3 4 6 2 2 4 3 3 3 2 14 16 16 13 9 24 26 23 38 51 50 50 45 48 43 43 45 43 37 34 32 34 34 31 30 26 18 18 14
4 5 12 10 3 10 2 2 1 4 2 3 4 2 6 12 15 17 16 21 23 26 26 40 43 47 39 43 42 40 39 37 37 37 37 38 37 34 34 29 22 21 19 11
2 3 8 17 16 7 4 3 2 2 3 3 3 4 14 12 16 17 19 24 26 23 27 34 41 40 44 45 39 37 36 37 38 41 42 42 40 35 34 27 23 20 15 11
3 2 7 12 4 4 6 17 7 6 1 2 4 5 15 14 18 25 24 34 27 22 24 33 41 46 44 39 35 35 35 39 45 46 41 41 39 37 31 27 23 18 16 12
5 3 5 4 13 15 14 19 2 4 3 7 3 11 15 21 23 24 33 12 21 26 21 27 28 28 34 31 31 33 33 42 49 46 46 44 38 33 27 25 23 19 17 18
5 4 5 13 17 9 14 20 18 10 5 2 7 7 13 15 15 19 23 26 30 20 25 30 30 30 31 30 30 27 24 29 34 45 44 40 32 27 27 25 22 22 21 17
2 3 5 15 5 11 13 16 10 6 13 4 10 7 11 11 23 26 26 25 27 23 25 30 27 32 32 30 28 27 32 31 34 26 30 34 31 26 29 27 25 22 19 16
3 3 6 5 14 7 4 8 9 11 16 12 11 9 10 17 14 17 21 26 23 23 26 29 33 32 28 24 24 23 25 30 38 22 28 30 31 31 30 28 26 22 18 14
4 5 1 5 10 5 4 11 14 17 15 17 17 18 9 6 5 12 17 27 22 21 23 29 30 35 39 39 37 28 21 25 25 26 35 34 35 35 31 27 24 21 17 12
3 2 3 2 5 4 2 9 12 8 6 15 16 17 16 12 8 12 26 21 20 19 11 13 23 30 25 21 20 25 35 26 40 42 41 38 36 33 29 25 22 19 16 14
5 3 2 2 3 2 4 14 24 2 3 15 17 11 13 11 2 3 16 20 22 21 13 10 15 21 28 28 29 37 40 44 43 40 37 35 31 30 28 24 22 20 15 17
4 3 2 2 2 1 10 18 17 4 7 24 18 7 11 4 3 5 9 18 18 16 17 18 20 26 31 35 40 43 42 42 38 36 32 30 27 26 24 22 18 18 19 18
2 4 2 3 1 2 7 10 5 7 15 18 18 2 6 6 3 4 9 17 18 18 19 21 27 30 28 33 40 42 42 41 37 33 31 30 28 24 23 23 23 19 17 17
3 5 2 3 5 5 3 2 9 10 14 18 14 6 4 5 6 8 11 15 20 23 26 27 31 32 30 34 34 37 36 33 34 33 32 30 30 27 25 24 23 20 16 15
4 6 3 4 2 3 1 1 3 10 16 15 8 6 4 5 4 8 13 17 20 22 24 26 27 28 30 29 31 34 34 30 29 31 32 30 28 28 26 23 20 16 13 13
7 5 5 5 5 8 4 1 3 5 11 10 7 3 2 3 6 8 11 15 18 19 22 25 27 30 32 30 29 29 28 26 28 29 28 27 26 24 22 19 17 15 14 8
8 6 3 4 4 5 8 5 3 6 10 2 3 2 2 3 6 10 11 14 17 19 20 21 25 29 31 30 30 30 29 29 29 30 27 25 24 22 22 23 24 17 11 10
Wind_Direction
295 266 232 243 245 255 261 276 274 289 282 313 284 284 290 300 295 291 293 265 257 267 280 213 195 207 189 190 183 184 187 190 189 185 181 181 173 177 186 194 195 202 207 216
321 253 252 251 241 262 293 297 282 287 292 294 281 283 284 280 280 283 273 265 248 257 264 252 193 198 179 186 184 185 188 186 186 182 184 181 174 173 186 192 197 202 204 209
237 259 280 319 49 239 242 261 279 283 295 258 281 283 284 267 274 278 266 263 245 246 251 238 167 202 180 185 176 167 181 189 187 186 183 183 186 185 183 188 196 195 199 204
258 254 311 304 270 205 260 262 250 263 277 266 177 270 260 271 270 275 271 259 231 234 236 243 207 172 177 179 174 178 193 195 193 191 192 192 191 188 194 196 187 186 193 202
266 299 299 278 256 179 240 246 265 258 238 266 263 247 253 220 256 260 261 250 231 232 228 227 223 202 197 196 202 228 243 230 218 200 201 200 198 191 187 185 181 185 197 206
266 289 268 244 273 207 253 230 235 259 237 247 246 198 258 235 233 256 247 228 224 224 221 219 218 206 203 197 193 206 215 277 265 208 202 199 194 188 188 185 185 195 200 203
317 292 285 247 331 56 77 48 284 271 230 244 269 186 246 246 263 250 271 243 223 217 211 204 199 187 200 197 194 198 189 202 218 210 197 195 191 196 200 196 201 199 202 208
335 327 5 335 284 285 78 151 262 288 271 301 272 240 251 228 252 259 264 274 240 199 198 199 198 192 196 197 186 178 186 203 201 197 189 191 195 199 201 205 205 208 207 199
334 271 303 302 316 159 145 212 197 260 235 273 231 277 307 245 283 265 261 272 245 224 198 210 190 193 189 189 191 197 200 205 203 193 189 195 200 206 198 202 204 199 182 175
240 285 282 319 170 86 171 143 263 230 293 288 286 267 53 8 350 334 314 272 258 225 192 202 192 192 188 188 198 205 205 206 202 189 191 197 200 200 201 202 193 175 168 162
280 207 294 308 307 305 161 215 252 286 289 333 315 334 15 4 350 336 326 300 278 231 183 189 197 196 195 196 200 209 208 210 202 193 196 196 194 194 192 190 170 167 154 146
227 297 288 294 290 333 104 310 247 282 351 257 228 274 18 346 347 345 328 314 269 233 190 192 189 194 202 200 197 203 205 204 192 188 188 193 194 192 183 169 166 160 144 129
316 330 313 334 17 4 2 305 249 220 318 257 310 302 343 351 356 353 338 318 256 220 171 180 190 193 192 197 193 199 199 195 183 181 184 186 188 174 165 160 155 151 140 147
186 209 227 242 275 299 309 330 340 159 14 308 304 312 345 8 3 344 332 357 228 189 186 175 173 168 176 186 176 180 169 177 181 179 182 183 164 153 148 148 143 144 155 155
145 257 253 265 284 318 22 21 26 66 279 309 321 338 14 23 353 333 346 59 78 90 129 146 152 163 155 145 151 160 174 179 168 182 167 156 150 153 144 142 149 156 155 145
302 275 303 308 270 51 57 55 52 2 359 328 19 37 16 35 13 359 20 53 80 86 90 109 131 150 135 130 136 146 144 151 178 146 133 141 153 144 144 152 155 155 146 146
280 337 328 286 313 328 11 357 346 358 9 353 2 357 354 43 355 340 13 51 58 83 101 106 114 117 128 132 135 145 152 156 148 146 165 154 146 143 148 154 156 149 142 140
284 322 264 294 331 50 158 26 330 335 28 14 8 360 340 63 257 10 34 78 71 71 95 116 131 121 117 123 124 102 120 143 138 180 159 146 145 150 152 154 148 141 139 138
133 273 319 337 333 292 282 346 330 338 38 18 359 347 359 267 263 4 32 67 72 79 115 133 131 140 152 166 155 159 151 175 162 154 151 149 149 148 152 149 144 139 140 136
353 165 144 329 309 302 308 319 328 207 199 11 357 358 347 339 352 331 32 84 124 120 117 153 143 152 156 166 175 172 165 157 152 150 147 149 153 153 148 144 141 133 134 130
338 353 218 251 228 328 307 322 337 39 324 330 350 338 14 37 342 329 55 89 107 128 138 135 147 154 158 157 160 149 149 146 149 148 146 146 147 144 144 139 131 131 133 121
299 328 306 349 12 350 323 330 56 266 304 320 334 140 78 94 87 60 92 108 125 128 134 143 143 138 144 150 148 142 137 141 143 144 146 144 145 142 136 133 129 131 128 118
291 185 223 186 219 214 184 232 298 314 317 336 338 164 108 114 128 134 129 138 137 145 147 149 148 145 141 146 144 140 138 142 141 142 143 144 141 138 134 131 130 131 132 119
289 288 248 6 207 224 343 190 194 324 343 346 347 152 122 109 154 149 151 150 152 153 152 151 148 143 141 144 140 138 141 143 147 146 144 143 142 139 139 137 141 139 150 126
235 317 276 277 301 354 133 294 261 332 356 354 43 64 76 135 167 178 169 160 163 160 157 156 152 147 145 147 145 144 147 153 154 150 146 144 146 146 143 142 140 140 132 116
209 222 207 242 247 234 277 303 277 337 356 7 303 297 59 172 182 180 177 179 174 169 164 162 157 153 152 152 154 155 158 159 155 149 149 148 148 150 149 149 145 139 135 137